Location: Battersea Observatory
(44.4318°N, 76.3841°W)
Time: 21:26:09
(UTC-05:00)

Altair - Visible Passes

Search period start: 27 January 2022 00:00
Search period end: 06 February 2022 00:00
Orbit: 1501 x 1683 km, 47.2° (Epoch: 27 January)

Date Brightness Start Highest point End Pass type
(mag) Time Alt. Az. Time Alt. Az. Time Alt. Az.
27 Jan 9.1 02:09:27 27° ENE 02:09:27 27° ENE 02:13:10 10° ENE visible
27 Jan 7.5 04:07:28 73° NW 04:08:19 76° N 04:18:31 10° E visible
27 Jan 7.7 06:05:29 19° WNW 06:13:32 77° SSW 06:23:35 10° ESE visible
28 Jan 9.4 01:45:36 19° ENE 01:45:36 19° ENE 01:47:55 10° ENE visible
28 Jan 7.6 03:43:37 74° NNE 03:43:37 74° NNE 03:53:15 10° E visible
28 Jan 7.6 05:41:37 25° WNW 05:48:19 81° SSW 05:58:25 10° ESE visible
29 Jan 9.6 01:21:45 13° ENE 01:21:45 13° ENE 01:22:40 10° ENE visible
29 Jan 7.9 03:19:46 61° ENE 03:19:46 61° ENE 03:27:59 10° E visible
29 Jan 7.6 05:17:47 34° WNW 05:23:06 84° SSW 05:33:14 10° ESE visible
30 Jan 8.3 02:55:57 48° ENE 02:55:57 48° ENE 03:02:43 10° E visible
30 Jan 7.5 04:53:57 45° WNW 04:57:52 86° SSW 05:08:02 10° ESE visible
30 Jan 8.3 06:52:51 10° WNW 07:02:05 41° SW 07:11:12 10° SSE visible
31 Jan 8.7 02:32:09 36° ENE 02:32:09 36° ENE 02:37:26 10° E visible
31 Jan 7.5 04:30:10 59° WNW 04:32:38 89° SSW 04:42:49 10° ESE visible
31 Jan 8.1 06:28:11 12° WNW 06:36:57 44° SW 06:46:15 10° SSE visible
01 Feb 9.0 02:08:23 27° ENE 02:08:23 27° ENE 02:12:10 10° E visible
01 Feb 7.4 04:06:24 77° WNW 04:07:23 89° NNE 04:17:36 10° ESE visible
01 Feb 8.0 06:04:25 18° WNW 06:11:49 47° SW 06:21:16 10° SSE visible
02 Feb 9.4 01:44:40 19° ENE 01:44:40 19° ENE 01:46:54 10° E visible
02 Feb 7.5 03:42:40 82° E 03:42:40 82° E 03:52:22 10° ESE visible
02 Feb 7.9 05:40:42 25° W 05:46:40 51° SW 05:56:16 10° SSE visible
03 Feb 9.7 01:20:58 12° ENE 01:20:58 12° ENE 01:21:37 10° ENE visible
03 Feb 7.8 03:19:00 62° E 03:19:00 62° E 03:27:07 10° ESE visible
03 Feb 7.8 05:17:02 34° W 05:21:31 54° SW 05:31:14 10° SE visible
04 Feb 8.3 02:55:22 46° E 02:55:22 46° E 03:01:51 10° ESE visible
04 Feb 7.7 04:53:25 45° W 04:56:22 58° SW 05:06:11 10° SE visible
05 Feb 8.7 02:31:49 33° E 02:31:49 33° E 02:36:35 10° E visible
05 Feb 7.6 04:29:51 57° WSW 04:31:11 61° SW 04:41:06 10° SE visible
05 Feb 8.8 06:27:53 11° W 06:34:32 21° SW 06:41:28 10° S visible
05 Feb 9.1 19:42:47 10° SSE 19:43:54 12° SSE 19:43:54 12° SSE visible
05 Feb 9.5 21:41:50 10° SW 21:41:58 10° SW 21:41:58 10° SW visible
